Wind_Speed
22 22 23 24 24 25 26 27 25 24 24 24 23 23 23 23 22 22 22 22 23 23 22 22 22 22 22 22 22 23 22 23 23 23 22 22 21 21 21 20 21 21 21 21
24 23 25 24 23 24 25 26 25 25 26 26 25 24 24 24 22 21 21 22 23 23 22 22 23 23 22 22 23 23 23 23 23 23 22 22 21 21 21 21 22 22 22 22
24 23 24 24 23 23 25 25 26 25 26 26 25 25 24 23 23 22 21 21 22 23 23 23 23 23 23 23 23 23 23 23 23 22 22 22 21 21 21 22 23 23 23 23
23 23 24 24 23 23 24 26 26 24 24 24 24 23 23 23 23 22 22 22 22 22 22 22 23 24 23 23 22 22 22 22 22 22 22 22 21 21 22 22 23 24 24 24
23 24 25 24 24 24 25 25 26 25 25 24 24 24 24 23 22 22 22 22 22 22 22 23 24 24 23 22 23 23 23 22 22 22 21 21 22 22 22 23 24 24 25 25
24 25 23 24 25 24 24 26 26 26 25 25 25 25 24 23 23 23 23 22 22 22 23 23 24 24 22 22 22 23 22 22 22 21 20 21 22 22 23 24 24 25 25 26
24 25 25 26 25 24 25 27 26 25 25 25 25 25 24 24 24 23 22 22 22 22 22 22 23 23 23 22 22 22 21 21 21 22 22 22 22 22 23 23 24 24 25 25
24 25 26 25 25 26 26 27 27 26 26 26 26 26 25 24 24 23 23 23 23 22 22 22 23 24 23 22 21 21 21 21 21 22 23 23 22 22 22 23 23 24 24 24
25 26 27 26 26 27 27 27 26 26 26 26 27 26 26 25 24 24 24 24 23 23 23 22 22 22 22 22 22 21 21 21 21 21 22 22 22 22 23 23 24 24 24 24
25 26 26 27 26 26 27 27 26 25 25 25 26 25 25 25 24 24 23 23 23 23 22 22 23 22 21 21 22 21 21 22 22 22 22 23 23 24 24 24 24 24 24 24
26 27 27 27 27 27 26 26 26 26 26 26 25 24 24 23 23 23 22 22 22 23 23 23 23 22 21 21 21 20 21 21 22 22 22 22 23 23 23 24 24 24 23 23
25 26 28 27 27 27 27 27 26 26 26 26 25 25 25 23 22 21 22 22 22 22 23 23 23 22 22 22 22 22 22 22 22 22 22 22 23 23 23 22 22 23 23 24
25 25 27 28 28 26 26 26 25 25 26 26 25 25 24 22 22 22 22 23 23 24 24 24 24 23 22 22 23 23 22 21 22 22 22 22 22 22 23 23 23 23 24 24
23 24 24 26 27 26 26 25 25 25 25 25 25 25 24 23 22 23 24 25 25 24 24 24 24 24 24 23 22 22 22 22 22 22 23 23 23 22 23 23 23 23 24 24
22 23 23 24 25 25 25 25 25 24 24 25 24 24 24 23 23 23 24 25 25 25 25 25 24 24 24 24 24 24 23 23 23 23 23 23 23 23 23 23 24 24 24 24
23 23 23 23 23 24 24 25 25 25 26 25 25 26 25 24 24 24 24 25 25 26 26 25 24 24 24 24 24 24 24 23 23 23 23 24 23 22 22 22 23 23 23 23
21 22 22 22 22 22 23 24 25 25 25 25 24 24 25 25 25 24 24 25 25 25 25 25 25 24 24 23 23 23 23 23 23 23 23 23 22 22 22 22 22 23 23 23
20 20 21 21 21 21 22 24 24 24 24 24 25 25 25 25 25 24 24 24 25 25 24 24 24 24 24 22 23 23 22 23 22 22 22 22 22 22 22 22 22 22 22 22
20 19 19 20 20 21 21 22 22 23 23 24 24 24 25 25 25 24 24 24 24 24 24 24 24 23 23 22 21 22 22 22 22 22 22 22 22 22 22 22 22 22 22 22
19 19 19 19 19 20 21 21 21 22 23 24 25 25 26 26 25 25 25 25 24 24 24 23 23 23 23 22 22 21 21 22 22 21 21 21 21 21 21 21 22 22 22 22
19 19 19 19 20 20 20 21 21 21 22 23 25 25 26 26 25 25 25 25 24 23 23 24 24 24 23 23 22 22 22 21 21 21 21 21 21 21 21 21 22 21 21 21
19 19 19 20 20 21 21 22 23 23 23 23 24 24 24 24 24 24 24 24 24 23 24 24 24 24 23 23 23 22 22 22 22 22 22 22 22 22 22 22 22 22 22 22
18 19 19 20 21 21 21 22 22 22 23 23 23 23 23 23 23 23 23 22 22 22 22 22 23 23 23 23 23 23 23 23 22 22 22 22 22 22 23 23 23 23 23 23
17 17 18 18 19 19 19 20 21 21 21 21 21 21 22 22 21 22 22 22 22 22 22 22 22 22 23 23 23 23 23 23 23 23 23 23 23 24 24 24 24 24 25 25
16 16 16 17 17 17 17 17 18 19 19 19 19 19 19 20 21 21 21 21 21 21 21 22 22 22 22 22 22 22 23 23 23 23 23 24 24 25 25 25 25 26 26 26
15 15 15 15 15 15 16 16 16 16 16 17 17 17 18 18 20 20 20 21 21 20 20 20 21 21 22 22 22 22 23 23 23 24 24 25 25 25 26 26 26 27 27 27
13 13 13 13 13 13 14 15 15 15 15 15 15 15 16 17 17 18 18 19 20 20 19 20 20 21 21 22 22 22 23 23 24 24 25 25 25 26 26 26 26 27 28 28
Wind_Direction
247 245 247 250 248 247 247 248 252 256 263 264 265 269 270 271 270 270 268 268 269 270 268 268 270 271 271 273 274 275 275 275 275 276 277 278 280 280 280 281 281 281 280 281
248 246 245 250 248 246 247 248 253 255 257 260 264 267 268 270 266 265 266 266 267 268 268 268 270 271 271 272 273 275 275 275 275 274 276 277 278 278 278 278 279 280 280 280
247 245 244 244 243 245 250 249 250 253 257 259 262 264 267 268 266 266 265 267 267 266 267 268 272 274 273 272 273 274 275 276 276 273 274 274 275 277 277 277 277 278 279 279
246 245 245 247 247 251 253 252 253 255 258 259 262 263 265 266 266 265 267 270 268 267 267 270 272 274 272 273 274 273 274 275 274 273 273 272 274 275 276 276 277 278 280 280
244 246 250 252 252 252 255 257 252 254 255 259 263 263 264 264 265 266 267 269 269 269 271 271 271 273 274 275 274 274 274 274 274 273 272 272 273 274 275 276 277 278 279 279
250 248 249 248 252 254 254 255 253 253 255 259 261 262 264 264 264 267 269 270 269 270 271 271 271 273 274 274 274 275 275 274 273 272 273 276 276 276 277 278 278 279 279 280
253 253 253 250 251 251 250 254 257 257 257 259 261 261 264 263 263 265 267 268 268 268 268 269 271 272 273 273 273 273 273 271 270 271 274 276 277 278 278 279 280 280 280 280
251 254 254 254 252 251 252 254 255 256 258 258 260 263 263 262 263 263 265 266 266 266 267 270 271 273 274 272 272 271 269 269 271 272 273 274 275 278 279 279 280 281 280 279
251 253 255 256 255 254 255 255 255 258 259 260 260 262 263 263 262 262 263 265 264 266 268 270 271 272 273 270 269 269 269 269 270 272 274 275 277 279 280 280 281 282 281 281
253 253 255 256 255 254 255 257 258 260 260 262 262 261 263 263 262 260 261 263 264 266 267 268 269 270 271 268 269 270 269 268 269 271 273 275 277 280 282 282 281 282 285 284
257 256 256 257 257 255 256 256 255 257 259 262 264 262 262 261 260 259 261 262 264 266 266 268 267 266 268 267 269 270 270 270 270 271 274 277 278 280 282 284 284 284 284 284
256 255 255 256 258 256 254 255 254 254 256 258 261 262 263 261 259 260 261 262 263 264 266 266 267 267 266 265 266 268 270 271 272 272 275 279 280 280 282 284 284 283 283 283
256 256 256 256 257 257 255 256 255 255 255 256 257 259 260 259 260 262 263 264 264 265 266 266 267 268 268 268 268 268 269 271 274 274 275 277 280 280 281 283 284 285 284 282
259 258 258 257 257 256 255 256 257 256 255 257 257 257 258 261 262 261 263 264 265 266 268 269 268 267 268 269 270 271 272 272 274 276 277 278 280 280 281 282 284 285 284 282
263 263 263 261 258 256 254 255 256 257 256 255 253 256 258 260 261 262 263 264 265 266 268 269 269 269 269 269 269 271 272 274 276 278 279 281 283 283 283 284 285 286 286 284
264 265 265 264 261 257 256 256 257 256 256 257 256 256 257 259 261 263 264 265 265 266 267 269 269 271 271 269 269 270 271 273 274 277 279 280 282 283 285 287 288 289 289 286
265 265 265 265 262 259 258 258 257 258 258 256 257 258 257 257 260 263 264 265 266 267 267 268 268 269 270 269 269 269 270 272 275 277 280 282 283 284 285 286 288 290 290 288
265 265 264 265 265 263 260 260 260 259 260 259 258 259 260 259 260 262 264 266 267 268 268 269 269 269 268 268 271 271 273 274 275 277 279 282 284 285 285 285 286 288 289 290
265 266 265 264 266 265 263 261 261 260 261 261 261 260 260 261 262 262 264 265 267 267 267 268 269 269 269 270 271 272 273 274 275 277 279 280 282 284 284 283 284 286 287 289
268 266 264 264 266 266 265 263 263 264 264 265 262 260 261 262 264 265 264 264 265 266 267 267 269 269 269 270 269 270 271 272 274 276 278 279 282 283 283 283 284 285 285 286
271 270 268 265 266 267 266 267 268 268 268 266 263 261 262 264 264 265 265 265 265 266 267 267 267 267 267 267 267 268 269 271 274 277 278 279 281 282 282 284 284 285 285 285
272 270 269 268 270 270 269 269 270 270 270 269 266 264 264 263 264 264 265 266 265 265 266 266 266 266 266 266 267 267 268 271 273 276 277 278 279 280 281 283 284 285 285 286
273 273 272 271 271 272 273 273 273 273 273 270 268 266 265 263 263 264 264 264 263 263 263 265 265 266 266 266 267 266 268 271 272 274 276 277 279 280 281 281 281 281 282 284
276 278 277 276 275 275 276 275 275 275 273 271 270 267 266 265 264 264 263 263 263 263 262 262 262 264 267 267 266 266 267 269 271 273 274 277 278 279 280 280 280 279 280 282
278 279 280 280 279 279 278 278 278 277 276 275 274 272 269 266 266 265 263 262 262 262 261 260 261 264 266 268 268 267 268 269 270 272 274 276 278 280 280 279 279 279 279 281
281 281 282 283 282 282 283 284 283 280 279 279 278 276 272 269 267 266 264 261 260 261 261 260 261 264 267 269 272 271 270 270 271 273 275 277 279 280 281 281 281 280 279 279
281 283 285 285 284 285 286 286 285 283 282 283 283 280 276 271 269 268 266 262 261 261 262 263 265 268 269 270 272 272 272 272 273 275 276 277 279 281 283 284 283 283 282 282
Height
5777 5779 5780 5781 5783 5784 5785 5787 5789 5790 5790 5790 5790 5790 5790 5789 5788 5788 5788 5789 5788 5788 5789 5789 5789 5788 5788 5789 5789 5789 5788 5788 5788 5788 5787 5787 5786 5786 5785 5785 5785 5785 5785 5784
5770 5772 5773 5774 5776 5778 5779 5781 5782 5783 5784 5783 5784 5784 5784 5783 5783 5782 5782 5782 5783 5783 5783 5784 5783 5783 5783 5783 5783 5782 5782 5782 5781 5781 5781 5781 5781 5780 5780 5779 5779 5779 5778 5778
5764 5766 5766 5768 5769 5771 5772 5773 5775 5775 5777 5777 5778 5778 5777 5778 5778 5778 5777 5777 5777 5777 5777 5777 5778 5776 5777 5777 5776 5776 5776 5776 5775 5775 5775 5775 5775 5774 5774 5774 5773 5772 5772 5772
5758 5760 5760 5764 5763 5765 5766 5767 5768 5769 5770 5770 5771 5771 5771 5771 5771 5771 5771 5771 5771 5771 5772 5772 5772 5771 5771 5771 5770 5770 5770 5770 5769 5769 5769 5769 5769 5769 5768 5768 5767 5766 5766 5765
5751 5753 5755 5756 5756 5758 5760 5760 5761 5763 5764 5764 5764 5765 5765 5765 5766 5766 5766 5766 5766 5766 5766 5766 5766 5765 5765 5764 5764 5764 5764 5763 5763 5763 5763 5763 5763 5763 5762 5761 5761 5760 5759 5759
5745 5746 5748 5750 5750 5752 5755 5754 5755 5756 5757 5758 5759 5759 5760 5760 5760 5760 5760 5760 5760 5761 5761 5760 5760 5759 5758 5758 5757 5757 5757 5757 5757 5757 5757 5757 5757 5756 5756 5755 5754 5753 5753 5752
5739 5740 5741 5742 5744 5746 5748 5748 5749 5750 5751 5752 5751 5753 5754 5754 5754 5754 5754 5754 5755 5755 5755 5754 5754 5753 5752 5752 5751 5751 5751 5751 5751 5751 5751 5751 5751 5750 5749 5749 5748 5747 5746 5745
5733 5733 5736 5735 5737 5739 5740 5741 5741 5743 5744 5745 5745 5746 5747 5748 5748 5748 5748 5748 5748 5748 5748 5748 5748 5747 5746 5746 5745 5745 5745 5745 5746 5745 5745 5745 5745 5744 5743 5742 5742 5741 5739 5738
5726 5727 5727 5728 5730 5731 5732 5733 5734 5735 5736 5738 5739 5740 5740 5741 5741 5742 5742 5742 5742 5742 5742 5741 5741 5741 5740 5740 5740 5740 5740 5740 5740 5740 5739 5739 5738 5738 5737 5736 5735 5734 5733 5732
5718 5719 5720 5721 5722 5724 5725 5726 5727 5728 5730 5731 5732 5733 5733 5734 5734 5735 5735 5735 5736 5736 5736 5735 5735 5735 5735 5734 5734 5734 5734 5734 5734 5734 5733 5733 5733 5732 5731 5730 5729 5727 5726 5725
5711 5713 5713 5715 5716 5717 5718 5719 5720 5722 5723 5724 5725 5726 5726 5727 5728 5728 5729 5729 5729 5730 5730 5730 5729 5729 5729 5729 5729 5729 5728 5728 5728 5728 5728 5727 5726 5725 5724 5723 5722 5721 5720 5719
5705 5705 5707 5708 5709 5710 5711 5712 5713 5715 5716 5717 5718 5719 5720 5721 5722 5722 5723 5723 5723 5723 5724 5724 5723 5723 5723 5723 5723 5723 5722 5722 5722 5722 5722 5721 5720 5719 5717 5716 5715 5714 5713 5712
5698 5699 5700 5701 5701 5702 5704 5705 5707 5708 5710 5710 5711 5712 5713 5714 5715 5716 5716 5717 5717 5717 5717 5717 5717 5717 5717 5717 5717 5716 5716 5716 5716 5716 5715 5714 5713 5712 5711 5710 5709 5707 5706 5705
5691 5692 5693 5694 5695 5696 5697 5698 5699 5701 5702 5704 5705 5705 5706 5707 5708 5709 5710 5710 5710 5710 5710 5710 5711 5711 5711 5711 5710 5710 5710 5710 5709 5709 5708 5708 5707 5706 5705 5703 5702 5701 5699 5698
5685 5686 5686 5687 5687 5689 5690 5691 5693 5694 5696 5697 5697 5698 5699 5700 5701 5702 5702 5703 5703 5703 5703 5704 5704 5704 5704 5704 5704 5704 5704 5704 5703 5702 5702 5701 5700 5699 5697 5696 5695 5694 5692 5691
5679 5680 5680 5680 5681 5682 5683 5684 5686 5687 5688 5688 5689 5691 5692 5693 5694 5695 5695 5695 5696 5696 5696 5696 5697 5697 5697 5697 5697 5697 5697 5697 5696 5695 5695 5694 5693 5691 5690 5689 5688 5686 5685 5684
5673 5674 5674 5674 5675 5675 5676 5677 5679 5680 5680 5681 5682 5684 5685 5686 5687 5687 5688 5688 5688 5688 5689 5689 5689 5689 5689 5690 5690 5690 5689 5689 5689 5688 5687 5687 5686 5684 5683 5682 5681 5680 5678 5677
5667 5667 5668 5668 5668 5669 5670 5671 5671 5672 5673 5674 5675 5676 5677 5679 5680 5680 5681 5681 5681 5682 5682 5682 5682 5682 5682 5683 5683 5682 5682 5682 5681 5681 5680 5679 5678 5677 5676 5675 5674 5673 5672 5670
5661 5661 5662 5662 5662 5663 5663 5664 5664 5665 5666 5666 5667 5669 5670 5671 5672 5672 5673 5674 5674 5675 5675 5675 5675 5675 5675 5675 5676 5675 5675 5675 5674 5673 5673 5672 5671 5670 5669 5669 5667 5666 5665 5664
5655 5655 5656 5656 5656 5656 5657 5657 5658 5658 5658 5659 5660 5661 5662 5663 5664 5664 5665 5665 5666 5667 5667 5668 5668 5668 5668 5668 5668 5668 5668 5668 5667 5667 5666 5665 5664 5663 5663 5662 5661 5659 5658 5657
5650 5650 5650 5650 5650 5650 5650 5651 5651 5651 5651 5651 5652 5653 5654 5655 5655 5656 5657 5658 5659 5659 5660 5660 5660 5661 5661 5661 5661 5661 5661 5661 5660 5660 5659 5659 5658 5657 5656 5655 5654 5653 5651 5650
5644 5644 5644 5644 5644 5644 5644 5644 5644 5644 5644 5644 5644 5645 5646 5646 5647 5648 5649 5650 5650 5651 5651 5652 5652 5653 5653 5653 5654 5654 5654 5653 5653 5653 5652 5652 5651 5650 5649 5648 5646 5645 5644 5643
5639 5639 5638 5638 5638 5638 5637 5637 5637 5637 5637 5637 5637 5637 5638 5638 5639 5639 5641 5642 5642 5643 5643 5644 5645 5645 5646 5646 5646 5646 5646 5646 5646 5645 5645 5644 5644 5643 5641 5640 5639 5638 5637 5635
5633 5633 5633 5633 5632 5632 5631 5631 5630 5630 5630 5630 5630 5630 5630 5630 5631 5632 5632 5633 5634 5635 5635 5636 5637 5638 5638 5638 5638 5638 5638 5638 5638 5637 5637 5636 5636 5635 5634 5633 5631 5630 5629 5628
5629 5628 5628 5627 5627 5626 5626 5625 5624 5624 5624 5623 5623 5623 5623 5623 5624 5624 5625 5626 5626 5627 5628 5629 5629 5630 5630 5630 5630 5630 5630 5630 5630 5629 5629 5628 5628 5627 5626 5624 5623 5622 5621 5620
5624 5623 5623 5622 5622 5621 5620 5620 5619 5619 5618 5618 5617 5617 5616 5616 5616 5617 5617 5618 5619 5619 5620 5621 5622 5622 5622 5622 5622 5623 5622 5622 5622 5621 5621 5620 5619 5618 5617 5616 5615 5613 5612 5611
5620 5619 5619 5618 5617 5617 5616 5615 5615 5614 5614 5613 5612 5612 5611 5610 5610 5610 5610 5611 5612 5613 5614 5614 5615 5615 5615 5615 5615 5615 5614 5614 5613 5613 5612 5611 5610 5609 5608 5607 5606 5604 5603 5601